Content
SEND FEEDBACK

Daily
Averages
Monthly
Summary
United States of America

CAPUTA, SOUTH DAKOTA


Home > North America > United States > South Dakota
Elevation: 3149 feet     Latitude: 44 03N     Longitude: 103 04W

WEATHER
 
SELECT A DAY
Number of Records: 200,530;   Date Range: 1/1/95 - 9/18/14
 
SHARE

PRINT THIS DATA

[ ← Previous Day ]
WEATHER ALMANAC - APRIL 27, 2013
[ Next Day → ]
[ °C ]   °F
Weather ElementAverageHighLow
Temperature62.2 °F78.1 °F (2:52 pm)39.9 °F (4:52 am)
Dewpoint30.7 °F35.1 °F (8:52 am)24.1 °F (3:52 pm)
Humidity36.2 %68 % (4:52 am)14 % (3:52 pm)
Barometer29.92 in30.06 in (1:52 am)29.77 in (11:52 pm)
Wind Speed7.6 mph17.3 mph (11:52 am)
Wind Gust27.6 mph (11:52 am)
Weather ElementAverage
Visibility10 mi
Wind DirectionS (185.2 °)

Weather ElementTotal
Precipitation---
Heating Degree Days6 (Base 65)
Growing Degree Days9 (Base 50)
Averaged from 25 records on April 27, 2013
WEATHER CONDITIONS BREAKOUT
WIND DIRECTION BREAKOUT
WEATHER BY HOUR - APRIL 27, 2013
[ °C ]   °F
Local TimeTemperatureDewpointHumidityBarometerVisibilityWind DirectionWind SpeedGust SpeedPrecipitationEventsConditions
1:52 AM44.1 °F30.9 °F60 %30.06 in10.0 miSE (140°)4.6 mphClear
2:52 AM43.0 °F30.0 °F60 %30.04 in10.0 miSE (130°)5.8 mphClear
3:52 AM42.1 °F30.0 °F62 %30.02 in10.0 miSE (140°)8.1 mphClear
4:52 AM39.9 °F30.0 °F68 %30.01 in10.0 miSE (130°)5.8 mphClear
5:52 AM39.9 °F28.9 °F65 %30.00 in10.0 miCalmClear
6:52 AM43.0 °F33.1 °F68 %30.01 in10.0 miCalmClear
7:52 AM55.0 °F34.0 °F45 %30.00 in10.0 miWNW (300°)6.9 mphClear
8:52 AM64.0 °F35.1 °F34 %29.98 in10.0 miWest (260°)3.5 mphClear
9:52 AM73.0 °F28.0 °F19 %29.96 in10.0 miWNW (290°)6.9 mphClear
10:52 AM73.0 °F32.0 °F22 %29.96 in10.0 miNorth (360°)13.8 mph20.7 mphClear
11:52 AM75.9 °F30.9 °F19 %29.95 in10.0 miNNW (340°)17.3 mph27.6 mphClear
12:39 PM77.0 °F30.2 °F18 %29.96 in10.0 miNW (320°)15.0 mph24.2 mphClear
12:52 PM77.0 °F30.9 °F19 %29.92 in10.0 miNorth (10°)12.7 mphClear
12:59 PM77.0 °F30.2 °F18 %29.95 in10.0 miNW (310°)10.4 mph18.4 mphClear
1:52 PM75.0 °F28.9 °F18 %29.91 in10.0 miNorth (350°)11.5 mphClear
2:52 PM78.1 °F27.0 °F15 %29.88 in10.0 miWNW (290°)16.1 mph21.9 mphClear
3:52 PM78.1 °F24.1 °F14 %29.87 in10.0 miWest (270°)12.7 mph24.2 mphClear
4:52 PM78.1 °F25.0 °F14 %29.86 in10.0 miNW (310°)10.4 mphClear
5:52 PM77.0 °F27.0 °F16 %29.85 in10.0 miWest (270°)8.1 mphClear
6:52 PM69.1 °F32.0 °F25 %29.84 in10.0 miNE (40°)5.8 mphClear
7:52 PM63.0 °F30.9 °F30 %29.82 in10.0 miENE (60°)3.5 mphClear
8:52 PM57.0 °F32.0 °F39 %29.80 in10.0 miCalmClear
9:52 PM53.1 °F35.1 °F50 %29.80 in10.0 miCalmClear
10:52 PM52.0 °F35.1 °F53 %29.79 in10.0 miCalmClear
11:52 PM51.1 °F35.1 °F54 %29.77 in10.0 miNW (310°)10.4 mphClear
Hourly data recorded from KRAP, located miles away from Caputa, South Dakota







STORIES FROM OUR PARTNERS